Simultaneous Nadir Overpasses (SNOs) Predictions

Prediction of SNOs between METOP-A and TERRA Satellite Orbit:

Table of predicted SNOs for the next 14.0 days since TLE Epoch: 12/1/2018
Index Date (METOP-A) Time (METOP-A) Lat,Lon (METOP-A) SZA (METOP-A ) Date (TERRA) Time (TERRA) Lat,Lon (TERRA) SZA (TERRA ) Distance(km) Time Diff (sec)
1 12/03/2018 15:24:55 -81.44, 178.60 73.26 12/03/2018 15:26:09 -81.44, 178.50 73.24 1.67 74
2 12/03/2018 16:15:35 81.44, -13.81 106.78 12/03/2018 16:15:35 81.44, -13.75 106.79 1.16 0
3 12/03/2018 17:06:15 -81.44, 153.83 73.19 12/03/2018 17:05:02 -81.44, 153.79 73.23 0.62 73
4 12/06/2018 10:59:11 -81.44,-115.25 72.97 12/06/2018 11:00:22 -81.43,-115.18 72.93 1.54 71
5 12/06/2018 11:49:50 81.44, 52.69 107.11 12/06/2018 11:49:48 81.43, 52.55 107.09 2.21 2
6 12/09/2018 06:33:25 -81.44, -48.72 72.69 12/09/2018 06:34:34 -81.43, -48.75 72.67 1.17 69
7 12/09/2018 07:24:05 81.44, 118.77 107.34 12/09/2018 07:24:00 81.43, 118.97 107.35 3.28 5
8 12/12/2018 02:07:40 -81.44, 17.79 72.48 12/12/2018 02:08:47 -81.43, 17.79 72.45 0.57 67
9 12/12/2018 02:58:19 81.44,-174.35 107.59 12/12/2018 02:58:13 81.44,-174.50 107.57 2.56 6
10 12/14/2018 21:41:55 -81.44, 84.29 72.32 12/14/2018 21:43:00 -81.44, 84.44 72.27 2.39 65




NCC Satellite Simultaneous Nadir Overpasses (SNOs) Prediction Service
